FW5704 Weather Reports


Display with metric or nautical units.
time (UTC)temp
F
wind
direction
speed
MPH
gust
MPH
rain 1hr
in
rain 24hr
in
rain mn
in
humidity
%
barometer
mb
20260503032537 43 0 0.0 1.0 0.00 0.00 0.00 77 1016.3
20260503032038 43 0 0.0 1.0 0.00 0.00 0.00 77 1016.2
20260503031549 43 0 0.0 1.0 0.00 0.00 0.00 77 1016.4
20260503031034 43 0 0.0 1.0 0.00 0.00 0.00 76 1016.4
20260503030534 43 0 0.0 1.0 0.00 0.00 0.00 76 1016.4
20260503030046 43 103 0.0 2.0 0.00 0.00 0.00 75 1016.4
20260503025533 43 103 0.0 2.0 0.00 0.00 0.00 76 1016.4
20260503025033 43 0 0.0 2.0 0.00 0.00 0.00 75 1016.3
20260503024549 44 0 0.0 2.0 0.00 0.00 0.00 74 1016.2
20260503024033 44 102 0.0 2.0 0.00 0.00 0.00 74 1016.2
20260503023533 44 102 1.0 2.0 0.00 0.00 0.00 73 1016.2
20260503023043 44 0 0.0 2.0 0.00 0.00 0.00 74 1016.1
20260503022535 44 106 0.0 2.0 0.00 0.00 0.00 72 1016.0
20260503022034 45 0 0.0 2.0 0.00 0.00 0.00 73 1016.0
20260503021546 45 0 0.0 2.0 0.00 0.00 0.00 71 1016.0
20260503021037 45 106 0.0 1.0 0.00 0.00 0.00 71 1015.9
20260503020534 45 0 0.0 2.0 0.00 0.00 0.00 71 1015.8
20260503020047 46 0 0.0 2.0 0.00 0.00 0.00 69 1015.8
20260503015534 46 0 0.0 2.0 0.00 0.00 0.00 68 1015.7
20260503015033 47 106 0.0 2.0 0.00 0.00 0.00 68 1015.7
20260503014553 47 0 0.0 2.0 0.00 0.00 0.00 68 1015.7
20260503014034 48 106 0.0 2.0 0.00 0.00 0.00 67 1015.6
20260503013533 48 0 0.0 2.0 0.00 0.00 0.00 66 1015.6
20260503013045 48 107 0.0 2.0 0.00 0.00 0.00 63 1015.6
20260503012534 48 0 0.0 2.0 0.00 0.00 0.00 64 1015.6
20260503012032 48 111 0.0 2.0 0.00 0.00 0.00 61 1015.4
20260503011541 49 0 0.0 2.0 0.00 0.00 0.00 64 1015.3
20260503011033 49 107 1.0 2.0 0.00 0.00 0.00 63 1015.3
20260503010533 49 109 0.0 2.0 0.00 0.00 0.00 61 1015.2
20260503010052 49 111 0.0 2.0 0.00 0.00 0.00 61 1015.1
20260503005533 50 112 0.0 2.0 0.00 0.00 0.00 59 1014.9
20260503005033 50 0 0.0 2.0 0.00 0.00 0.00 60 1015.0
20260503004545 51 0 0.0 3.0 0.00 0.00 0.00 59 1015.0
20260503004036 51 0 1.0 3.0 0.00 0.00 0.00 60 1015.1
20260503003617 51 0 0.0 2.0 0.00 0.00 0.00 54 1014.8
20260503003052 51 97 0.0 2.0 0.00 0.00 0.00 56 1014.7
20260503002533 52 97 0.0 2.0 0.00 0.00 0.00 52 1014.8
20260503002033 52 100 0.0 2.0 0.00 0.00 0.00 50 1014.5
20260503001613 52 0 0.0 2.0 0.00 0.00 0.00 51 1014.6
20260503001034 53 352 0.0 1.0 0.00 0.00 0.00 50 1014.5
20260503000530 53 0 0.0 5.0 0.00 0.00 0.00 51 1014.4
20260503000104 53 0 1.0 5.0 0.00 0.00 0.00 49 1014.3
20260502235534 53 162 0.0 3.0 0.00 0.00 0.00 48 1014.1
20260502235034 54 0 0.0 3.0 0.00 0.00 0.00 50 1014.0
20260502234549 54 165 0.0 3.0 0.00 0.00 0.00 47 1014.1
20260502234033 54 0 1.0 2.0 0.00 0.00 0.00 48 1014.1
20260502233533 54 0 0.0 2.0 0.00 0.00 0.00 45 1014.1
20260502233047 55 0 0.0 3.0 0.00 0.00 0.00 47 1013.9
20260502232532 55 116 0.0 3.0 0.00 0.00 0.00 43 1014.0
20260502232034 55 0 0.0 3.0 0.00 0.00 0.00 43 1013.8
20260502231545 56 175 0.0 2.0 0.00 0.00 0.00 43 1013.9
20260502231033 56 168 0.0 4.0 0.00 0.00 0.00 41 1013.6
20260502230533 56 0 1.0 4.0 0.00 0.00 0.00 41 1013.7
20260502230043 56 34 1.0 4.0 0.00 0.00 0.00 43 1013.7
20260502225533 56 0 1.0 4.0 0.00 0.00 0.00 46 1013.5
20260502225033 57 219 1.0 6.0 0.00 0.00 0.00 41 1013.6
20260502224542 57 352 1.0 6.0 0.00 0.00 0.00 39 1013.7
20260502224033 57 122 1.0 6.0 0.00 0.00 0.00 41 1013.6
20260502223533 57 238 2.0 6.0 0.00 0.00 0.00 37 1013.7
20260502223045 58 350 2.0 6.0 0.00 0.00 0.00 36 1013.6
20260502222534 57 262 1.0 9.0 0.00 0.00 0.00 37 1013.6
20260502222032 58 5 2.0 9.0 0.00 0.00 0.00 37 1013.7
20260502221546 58 76 1.0 6.0 0.00 0.00 0.00 43 1013.5
20260502221032 58 232 1.0 6.0 0.00 0.00 0.00 37 1013.6
20260502220534 58 279 1.0 5.0 0.00 0.00 0.00 36 1013.4
20260502220045 58 18 1.0 4.0 0.00 0.00 0.00 39 1013.5
20260502215534 58 0 1.0 5.0 0.00 0.00 0.00 36 1013.5
20260502215034 59 0 1.0 7.0 0.00 0.00 0.00 36 1013.4
20260502214556 60 158 1.0 7.0 0.00 0.00 0.00 37 1013.3
20260502214034 60 153 2.0 7.0 0.00 0.00 0.00 36 1013.1
20260502213533 60 0 1.0 6.0 0.00 0.00 0.00 35 1012.9
20260502213057 60 182 1.0 8.0 0.00 0.00 0.00 35 1012.8
20260502212534 60 105 1.0 8.0 0.00 0.00 0.00 33 1012.8
20260502212033 60 151 2.0 8.0 0.00 0.00 0.00 35 1012.6
20260502211539 60 38 1.0 6.0 0.00 0.00 0.00 38 1012.7
20260502211032 61 236 2.0 7.0 0.00 0.00 0.00 35 1012.7
20260502210532 61 80 1.0 7.0 0.00 0.00 0.00 34 1012.5
20260502210047 61 0 2.0 7.0 0.00 0.00 0.00 33 1012.4
20260502205532 61 0 2.0 9.0 0.00 0.00 0.00 35 1012.4
20260502205036 61 245 2.0 9.0 0.00 0.00 0.00 35 1012.2
20260502204546 62 252 2.0 7.0 0.00 0.00 0.00 35 1012.1
20260502204034 62 256 1.0 6.0 0.00 0.00 0.00 36 1012.1
20260502203533 62 242 1.0 10.0 0.00 0.00 0.00 36 1011.9
20260502203044 62 311 3.0 10.0 0.00 0.00 0.00 38 1012.0
20260502202533 61 232 1.0 6.0 0.00 0.00 0.00 38 1011.9
20260502202033 61 246 1.0 10.0 0.00 0.00 0.00 37 1011.8
20260502201541 62 230 0.0 10.0 0.00 0.00 0.00 36 1012.0
20260502201034 63 252 3.0 8.0 0.00 0.00 0.00 35 1011.8
20260502200533 63 249 2.0 7.0 0.00 0.00 0.00 35 1011.9
20260502200047 63 246 1.0 7.0 0.00 0.00 0.00 42 1011.8
20260502195534 62 252 2.0 7.0 0.00 0.00 0.00 37 1011.8
20260502195035 62 245 1.0 8.0 0.00 0.00 0.00 41 1011.9
20260502194545 62 240 1.0 8.0 0.00 0.00 0.00 38 1011.8
20260502194033 63 227 2.0 8.0 0.00 0.00 0.00 39 1012.0
20260502193533 64 261 2.0 8.0 0.00 0.00 0.00 41 1011.8
20260502193047 63 241 1.0 9.0 0.00 0.00 0.00 38 1011.9
20260502192533 63 246 3.0 9.0 0.00 0.00 0.00 41 1011.9
20260502192034 63 245 2.0 6.0 0.00 0.00 0.00 38 1011.8
20260502191548 63 228 1.0 7.0 0.00 0.00 0.00 39 1012.0
20260502191032 63 262 3.0 7.0 0.00 0.00 0.00 41 1011.8
20260502190533 63 269 2.0 8.0 0.00 0.00 0.00 43 1011.8
20260502190046 62 65 2.0 8.0 0.00 0.00 0.00 46 1012.0
20260502185537 61 73 1.0 4.0 0.00 0.00 0.00 46 1012.1
20260502185033 60 282 1.0 4.0 0.00 0.00 0.00 53 1012.2
20260502184603 60 243 1.0 6.0 0.00 0.00 0.00 47 1012.3
20260502184033 61 0 0.0 6.0 0.00 0.00 0.00 48 1012.0
20260502183532 60 294 1.0 4.0 0.00 0.00 0.00 48 1012.1
20260502183051 60 57 0.0 4.0 0.00 0.00 0.00 54 1012.2
20260502182535 60 0 0.0 5.0 0.00 0.00 0.00 52 1012.0
20260502182033 61 258 1.0 5.0 0.00 0.00 0.00 48 1012.2
20260502181544 62 167 1.0 7.0 0.00 0.00 0.00 47 1012.2
20260502181034 60 267 2.0 9.0 0.00 0.00 0.00 51 1012.1
20260502180533 60 258 2.0 9.0 0.00 0.00 0.00 54 1012.3
20260502164036 57 0 0.0 2.0 0.00 0.00 0.00 65 1012.9
20260502163533 57 0 0.0 4.0 0.00 0.00 0.00 69 1013.1
20260502163056 57 0 0.0 4.0 0.00 0.00 0.00 67 1013.2
20260502162533 57 265 1.0 6.0 0.00 0.00 0.00 68 1013.1
20260502162033 58 0 1.0 7.0 0.00 0.00 0.00 67 1013.2
20260502161547 59 254 1.0 7.0 0.00 0.00 0.00 64 1013.1
20260502161033 59 254 1.0 7.0 0.00 0.00 0.00 66 1013.1
20260502160534 59 178 1.0 4.0 0.00 0.00 0.00 65 1013.0
20260502152033 58 250 1.0 4.0 0.00 0.00 0.00 68 1013.0
20260502151603 57 269 1.0 3.0 0.00 0.00 0.00 66 1013.0
20260502151036 57 0 0.0 6.0 0.00 0.00 0.00 70 1013.0
20260502150535 57 263 1.0 6.0 0.00 0.00 0.00 68 1013.1
20260502150104 57 263 1.0 6.0 0.00 0.00 0.00 67 1013.1
20260502130534 51 0 0.0 3.0 0.00 0.00 0.00 83 1013.1
20260502123535 50 0 0.0 0.0 0.00 0.00 0.00 86 1012.7
20260502123059 50 0 0.0 0.0 0.00 0.00 0.00 86 1012.5
20260502122535 50 0 0.0 0.0 0.00 0.00 0.00 86 1012.8
20260502122037 49 0 0.0 0.0 0.00 0.00 0.00 87 1012.8
20260502121547 49 0 0.0 0.0 0.00 0.00 0.00 87 1012.9
20260502121039 49 0 0.0 0.0 0.00 0.00 0.00 86 1013.1
20260502120533 49 0 0.0 0.0 0.00 0.00 0.00 86 1013.2
20260502115536 49 0 0.0 0.0 0.00 0.00 0.00 86 1012.6
20260502115033 49 0 0.0 0.0 0.00 0.00 0.00 87 1012.8
20260502114549 49 0 0.0 0.0 0.00 0.00 0.00 88 1012.9
20260502114033 49 0 0.0 0.0 0.00 0.00 0.00 87 1012.7
20260502113533 49 0 0.0 0.0 0.00 0.00 0.00 87 1012.8
20260502113049 49 0 0.0 0.0 0.00 0.00 0.00 87 1012.9
20260502112532 49 0 0.0 0.0 0.00 0.00 0.00 86 1012.5
20260502112033 49 0 0.0 0.0 0.00 0.00 0.00 86 1012.1
20260502111546 49 0 0.0 0.0 0.00 0.00 0.00 86 1012.3
20260502111033 49 0 0.0 0.0 0.00 0.00 0.00 86 1012.5
20260502110533 49 0 0.0 0.0 0.00 0.00 0.00 86 1012.3
20260502110055 49 0 0.0 0.0 0.00 0.00 0.00 85 1012.4
20260502105534 49 0 0.0 0.0 0.00 0.00 0.00 85 1012.3
20260502105033 49 0 0.0 0.0 0.00 0.00 0.00 85 1012.2
20260502104551 49 0 0.0 0.0 0.00 0.00 0.00 84 1012.0
20260502104033 49 0 0.0 0.0 0.00 0.00 0.00 84 1011.7
20260502103533 49 0 0.0 0.0 0.00 0.00 0.00 84 1011.9
20260502103055 49 0 0.0 0.0 0.00 0.00 0.00 84 1011.9
20260502102533 49 0 0.0 0.0 0.00 0.00 0.00 84 1012.0
20260502102034 50 0 0.0 0.0 0.00 0.00 0.00 84 1012.0
20260502101606 50 0 0.0 0.0 0.00 0.00 0.00 83 1012.3
20260502101033 50 0 0.0 0.0 0.00 0.00 0.00 83 1012.3
20260502100533 50 0 0.0 0.0 0.00 0.00 0.00 83 1012.1
20260502100107 50 0 0.0 0.0 0.00 0.00 0.00 83 1012.0
20260502091033 50 0 0.0 0.0 0.00 0.00 0.00 82 1011.8
20260502090534 50 0 0.0 0.0 0.00 0.00 0.00 82 1011.9
20260502071033 51 0 0.0 0.0 0.00 0.01 0.00 83 1012.5
20260502070534 51 0 0.0 0.0 0.00 0.01 0.00 82 1012.5
20260502070051 51 0 0.0 0.0 0.00 0.01 0.00 82 1012.4
20260502065533 51 0 0.0 0.0 0.00 0.01 0.00 82 1012.6
20260502065033 51 0 0.0 0.0 0.00 0.01 0.00 82 1012.8
20260502064552 51 0 0.0 0.0 0.00 0.01 0.00 81 1012.8
20260502064033 51 0 0.0 0.0 0.00 0.01 0.00 82 1012.9
20260502063533 51 0 0.0 0.0 0.00 0.01 0.00 81 1013.0
20260502063042 50 0 0.0 0.0 0.00 0.01 0.00 80 1012.8
20260502062536 50 0 0.0 0.0 0.00 0.01 0.00 81 1012.9
20260502062036 50 0 0.0 0.0 0.00 0.01 0.00 80 1012.9
20260502061549 51 0 0.0 0.0 0.00 0.01 0.00 81 1012.9
20260502061033 51 0 0.0 0.0 0.00 0.01 0.00 82 1012.8
20260502060534 51 0 0.0 0.0 0.00 0.01 0.00 82 1012.8
20260502060053 50 0 0.0 0.0 0.00 0.01 0.00 82 1012.8
20260502055534 50 0 0.0 0.0 0.00 0.01 0.00 82 1013.0
20260502055033 50 0 0.0 0.0 0.00 0.01 0.00 81 1013.0
20260502054545 50 0 0.0 0.0 0.00 0.01 0.00 82 1013.1
20260502054033 50 0 0.0 0.0 0.00 0.01 0.00 82 1013.1
20260502053533 50 0 0.0 0.0 0.00 0.01 0.00 82 1013.1
20260502053058 50 0 0.0 0.0 0.00 0.01 0.00 82 1013.2
20260502052533 50 0 0.0 0.0 0.00 0.01 0.00 82 1013.2
20260502052034 50 0 0.0 0.0 0.00 0.01 0.00 81 1013.2
20260502051542 51 0 0.0 0.0 0.00 0.01 0.00 82 1013.2
20260502051033 51 0 0.0 0.0 0.00 0.01 0.00 82 1013.3
20260502050534 51 0 0.0 0.0 0.00 0.01 0.00 81 1013.3
20260502050047 51 0 0.0 0.0 0.00 0.01 0.00 81 1013.2
20260502045533 51 0 0.0 0.0 0.00 0.01 0.00 81 1013.4
20260502045034 51 0 0.0 0.0 0.00 0.01 0.00 80 1013.4
20260502044545 51 0 0.0 0.0 0.00 0.01 0.00 80 1013.6
20260502044033 51 0 0.0 0.0 0.00 0.01 0.00 80 1013.8
20260502043533 51 0 0.0 0.0 0.00 0.01 0.00 79 1013.7
20260502043044 51 0 0.0 0.0 0.00 0.01 0.00 78 1013.7
20260502042536 51 0 0.0 0.0 0.00 0.01 0.00 80 1013.7
20260502042033 51 0 0.0 0.0 0.00 0.01 0.00 80 1013.7
20260502041543 51 0 0.0 0.0 0.00 0.01 0.00 79 1013.7
20260502041032 52 0 0.0 0.0 0.00 0.01 0.00 80 1013.7
20260502040533 51 0 0.0 0.0 0.00 0.01 0.00 80 1013.7
20260502040051 51 0 0.0 0.0 0.00 0.01 0.00 80 1013.6
20260502035533 51 0 0.0 0.0 0.00 0.01 0.01 79 1013.6
20260502035035 51 0 0.0 0.0 0.00 0.01 0.01 79 1013.5
20260502034545 51 0 0.0 0.0 0.00 0.01 0.01 80 1013.7
20260502034034 52 0 0.0 0.0 0.00 0.01 0.01 79 1013.7
20260502033535 52 0 0.0 0.0 0.00 0.01 0.01 79 1013.6
20260502033050 52 0 0.0 0.0 0.00 0.01 0.01 79 1013.7